CES2999 UACC-ZSPD

Flight info

Callsign CES2999
Flight time N/A
Altitude FL390
Route BANOS W333 KRG W348 AGZ M166 SARIN A368 FKG W192 LUPRO V116 ESDEX W191 DNC JIG W214 HO LIMGI PASGU W638 KAMDA W128 FYG B208 HFE R343 SASAN
Aircraft A321/M-S/N

Departure

Time 2026-04-28 12:40
Airport Nursultan Nazarbayev International Airport (UACC)

Arrival

Time N/A
Airport Shanghai Pudong International Airport (ZSPD)
Time Latitude Longitude Altitude Speed Heading
2026-04-28 12:40 50.73780 71.63335 15308 ft 418 kts 129°
2026-04-28 12:40 50.71871 71.66918 16025 ft 423 kts 130°
2026-04-28 12:40 50.69955 71.70519 16715 ft 427 kts 130°
2026-04-28 12:40 50.68001 71.74187 17388 ft 431 kts 130°
2026-04-28 12:41 50.66032 71.77870 18037 ft 435 kts 130°
2026-04-28 12:41 50.64039 71.81591 18669 ft 439 kts 130°
2026-04-28 12:41 50.62020 71.85352 19282 ft 443 kts 130°
2026-04-28 12:41 50.59967 71.89170 19878 ft 447 kts 130°
2026-04-28 12:42 50.57912 71.92985 20452 ft 451 kts 130°
2026-04-28 12:42 50.55837 71.96831 21009 ft 454 kts 130°
2026-04-28 12:42 50.53743 72.00705 21548 ft 458 kts 130°
2026-04-28 12:42 50.51622 72.04625 22072 ft 462 kts 130°
2026-04-28 12:43 50.49519 72.08503 22575 ft 465 kts 130°
2026-04-28 12:43 50.47384 72.12437 23058 ft 468 kts 130°
2026-04-28 12:43 50.45203 72.16448 23534 ft 472 kts 130°
2026-04-28 12:43 50.43034 72.20431 24055 ft 473 kts 130°
2026-04-28 12:44 50.40946 72.24257 24690 ft 471 kts 130°
2026-04-28 12:44 50.38797 72.28192 25339 ft 469 kts 130°
2026-04-28 12:44 50.36642 72.32130 25943 ft 467 kts 130°
2026-04-28 12:44 50.34495 72.36046 26516 ft 467 kts 130°
2026-04-28 12:45 50.32340 72.39972 27078 ft 466 kts 130°
2026-04-28 12:45 50.30163 72.43931 27636 ft 465 kts 130°
2026-04-28 12:45 50.28006 72.47849 28182 ft 464 kts 130°
2026-04-28 12:45 50.25877 72.51708 28713 ft 463 kts 130°
2026-04-28 12:46 50.23725 72.55604 29241 ft 462 kts 130°
2026-04-28 12:46 50.21917 72.58871 29677 ft 461 kts 130°
2026-04-28 12:46 50.19745 72.62749 30187 ft 460 kts 131°
2026-04-28 12:46 50.17468 72.66459 30686 ft 459 kts 135°
2026-04-28 12:47 50.15357 72.69615 30958 ft 464 kts 136°
2026-04-28 12:47 50.12935 72.73188 31133 ft 472 kts 136°
2026-04-28 12:47 50.10457 72.76832 31311 ft 480 kts 136°
2026-04-28 12:47 50.07955 72.80505 31607 ft 484 kts 136°
2026-04-28 12:48 50.06090 72.83239 31929 ft 484 kts 136°
2026-04-28 12:48 50.04383 72.85739 32248 ft 484 kts 136°
2026-04-28 12:48 50.01872 72.89412 32703 ft 483 kts 136°
2026-04-28 12:49 49.99387 72.93041 33123 ft 483 kts 136°
2026-04-28 12:49 49.96891 72.96671 33539 ft 483 kts 135°
2026-04-28 12:49 49.94383 73.00323 33957 ft 482 kts 135°
2026-04-28 12:49 49.91876 73.03975 34341 ft 482 kts 135°
2026-04-28 12:50 49.89357 73.07638 34739 ft 481 kts 136°
2026-04-28 12:50 49.86859 73.11244 35132 ft 480 kts 136°
2026-04-28 12:50 49.84336 73.14878 35509 ft 479 kts 136°
2026-04-28 12:50 49.81837 73.18479 35869 ft 478 kts 136°
2026-04-28 12:51 49.79357 73.22057 36218 ft 476 kts 136°
2026-04-28 12:51 49.76871 73.25638 36553 ft 475 kts 136°
2026-04-28 12:51 49.74403 73.29271 36858 ft 474 kts 133°
2026-04-28 12:51 49.72123 73.33152 37131 ft 474 kts 128°
2026-04-28 12:52 49.70118 73.37264 37402 ft 472 kts 122°
2026-04-28 12:52 49.68332 73.41753 37651 ft 471 kts 116°
2026-04-28 12:52 49.66848 73.46415 37850 ft 470 kts 110°
2026-04-28 12:52 49.65660 73.51220 38025 ft 470 kts 105°
2026-04-28 12:53 49.64613 73.56161 38208 ft 471 kts 104°
2026-04-28 12:53 49.63592 73.61101 38401 ft 472 kts 104°
2026-04-28 12:53 49.62558 73.66075 38584 ft 473 kts 105°
2026-04-28 12:53 49.61863 73.69396 38691 ft 473 kts 105°
2026-04-28 12:54 49.60469 73.75984 38907 ft 475 kts 106°
2026-04-28 12:54 49.59412 73.80930 39066 ft 476 kts 106°
2026-04-28 12:54 49.58349 73.85879 39147 ft 477 kts 106°
2026-04-28 12:55 49.56207 73.95793 39161 ft 478 kts 106°
2026-04-28 12:55 49.54064 74.05659 39164 ft 477 kts 106°
2026-04-28 12:56 49.51906 74.15551 39164 ft 477 kts 106°
2026-04-28 12:56 49.49738 74.25442 39164 ft 477 kts 106°
2026-04-28 12:57 49.47557 74.35344 39164 ft 477 kts 106°
2026-04-28 12:57 49.45366 74.45241 39164 ft 477 kts 106°
2026-04-28 12:58 49.43181 74.55078 39164 ft 476 kts 106°
2026-04-28 12:58 49.40997 74.64877 39164 ft 476 kts 106°
2026-04-28 12:59 49.39312 74.72424 39164 ft 476 kts 107°
2026-04-28 12:59 49.37110 74.82239 39164 ft 476 kts 107°
2026-04-28 13:00 49.34896 74.92051 39164 ft 476 kts 107°
2026-04-28 13:00 49.32678 75.01829 39164 ft 475 kts 107°
2026-04-28 13:01 49.30438 75.11653 39164 ft 475 kts 107°
2026-04-28 13:01 49.28203 75.21413 39164 ft 475 kts 107°
2026-04-28 13:02 49.25967 75.31136 39164 ft 475 kts 107°
2026-04-28 13:02 49.23717 75.40874 39164 ft 475 kts 107°
2026-04-28 13:03 49.21449 75.50646 39164 ft 475 kts 107°
2026-04-28 13:03 49.19179 75.60379 39165 ft 475 kts 107°
2026-04-28 13:04 49.16902 75.70105 39164 ft 475 kts 108°
2026-04-28 13:04 49.15152 75.77567 39164 ft 475 kts 108°
2026-04-28 13:06 49.14425 75.80654 39164 ft 475 kts 108°
2026-04-28 13:07 49.13385 75.85118 39161 ft 467 kts 110°
2026-04-28 13:07 49.11110 75.94629 39114 ft 470 kts 108°
2026-04-28 13:08 49.08804 76.04331 39139 ft 474 kts 108°
2026-04-28 13:08 49.06495 76.13989 39153 ft 474 kts 108°
2026-04-28 13:09 49.05953 76.16246 39155 ft 474 kts 108°
2026-04-28 13:10 49.05038 76.20061 39158 ft 474 kts 108°
2026-04-28 13:11 49.02718 76.29742 39162 ft 474 kts 108°
2026-04-28 13:11 49.00386 76.39431 39163 ft 474 kts 108°
2026-04-28 13:12 48.98070 76.49001 39163 ft 473 kts 108°
2026-04-28 13:12 48.95737 76.58591 39163 ft 473 kts 108°
2026-04-28 13:13 48.93388 76.68214 39162 ft 473 kts 109°
2026-04-28 13:13 48.91041 76.77804 39162 ft 473 kts 109°
2026-04-28 13:14 48.88680 76.87354 39162 ft 474 kts 109°
2026-04-28 13:14 48.86298 76.96873 39162 ft 474 kts 109°
2026-04-28 13:15 48.83909 77.06444 39162 ft 473 kts 109°
2026-04-28 13:15 48.81607 77.15666 39145 ft 473 kts 109°
2026-04-28 13:16 48.79216 77.25206 39117 ft 473 kts 109°
2026-04-28 13:16 48.76816 77.34748 39139 ft 474 kts 109°
2026-04-28 13:17 48.74408 77.44289 39153 ft 473 kts 109°
2026-04-28 13:17 48.72004 77.53769 39159 ft 473 kts 109°
2026-04-28 13:18 48.69598 77.63203 39162 ft 473 kts 109°
2026-04-28 13:18 48.67179 77.72659 39162 ft 472 kts 110°
2026-04-28 13:19 48.64768 77.82052 39163 ft 472 kts 110°
2026-04-28 13:19 48.62353 77.91417 39168 ft 472 kts 110°
2026-04-28 13:20 48.59923 78.00801 39175 ft 471 kts 110°
2026-04-28 13:20 48.57473 78.10220 39179 ft 472 kts 110°
2026-04-28 13:21 48.55020 78.19610 39179 ft 472 kts 110°
2026-04-28 13:21 48.52564 78.28970 39177 ft 472 kts 110°
2026-04-28 13:22 48.50093 78.38354 39173 ft 472 kts 110°
2026-04-28 13:22 48.47624 78.47693 39169 ft 472 kts 110°
2026-04-28 13:23 48.45139 78.57056 39166 ft 472 kts 110°
2026-04-28 13:23 48.42660 78.66357 39164 ft 472 kts 111°
2026-04-28 13:24 48.40149 78.75767 39164 ft 473 kts 111°
2026-04-28 13:24 48.37639 78.85126 39164 ft 474 kts 111°
2026-04-28 13:25 48.35123 78.94457 39164 ft 474 kts 111°
2026-04-28 13:25 48.32596 79.03789 39164 ft 474 kts 111°
2026-04-28 13:26 48.30060 79.13116 39164 ft 474 kts 112°
2026-04-28 13:26 48.27529 79.22388 39163 ft 474 kts 112°
2026-04-28 13:27 48.24983 79.31677 39164 ft 474 kts 112°
2026-04-28 13:27 48.22430 79.40956 39164 ft 474 kts 112°
2026-04-28 13:28 48.19869 79.50225 39164 ft 473 kts 112°
2026-04-28 13:28 48.17312 79.59445 39165 ft 473 kts 112°
2026-04-28 13:29 48.14734 79.68710 39164 ft 473 kts 113°
2026-04-28 13:29 48.12164 79.77934 39164 ft 474 kts 113°
2026-04-28 13:30 48.09588 79.87124 39164 ft 474 kts 113°
2026-04-28 13:30 48.06995 79.96332 39164 ft 474 kts 113°
2026-04-28 13:31 48.03087 80.10134 39171 ft 474 kts 113°
2026-04-28 13:31 48.00485 80.19279 39179 ft 474 kts 113°
2026-04-28 13:32 47.97863 80.28460 39185 ft 474 kts 113°
2026-04-28 13:32 47.95242 80.37595 39187 ft 474 kts 113°
2026-04-28 13:33 47.92361 80.46511 39185 ft 474 kts 120°
2026-04-28 13:33 47.88879 80.54911 39181 ft 473 kts 123°
2026-04-28 13:34 47.85243 80.63219 39175 ft 473 kts 123°
2026-04-28 13:34 47.81650 80.71518 39170 ft 474 kts 124°
2026-04-28 13:35 47.78055 80.79829 39167 ft 474 kts 124°
2026-04-28 13:35 47.74450 80.88126 39165 ft 474 kts 124°
2026-04-28 13:36 47.70811 80.96472 39165 ft 474 kts 124°
2026-04-28 13:36 47.67208 81.04717 39169 ft 474 kts 124°
2026-04-28 13:37 47.63594 81.12960 39177 ft 475 kts 124°
2026-04-28 13:37 47.59947 81.21256 39183 ft 477 kts 124°
2026-04-28 13:38 47.56315 81.29512 39188 ft 477 kts 124°
2026-04-28 13:38 47.52752 81.37855 39190 ft 478 kts 123°
2026-04-28 13:39 47.49176 81.46258 39190 ft 482 kts 123°
2026-04-28 13:39 47.45549 81.54736 39188 ft 483 kts 123°
2026-04-28 13:40 47.41932 81.63152 39184 ft 484 kts 124°
2026-04-28 13:40 47.38332 81.71520 39178 ft 483 kts 124°
2026-04-28 13:41 47.34734 81.79865 39173 ft 483 kts 124°
2026-04-28 13:41 47.31075 81.88303 39168 ft 483 kts 124°
2026-04-28 13:42 47.27429 81.96679 39165 ft 483 kts 124°
2026-04-28 13:42 47.23774 82.05056 39164 ft 484 kts 125°
2026-04-28 13:43 47.20078 82.13486 39164 ft 484 kts 125°
2026-04-28 13:43 47.16401 82.21837 39164 ft 484 kts 125°
2026-04-28 13:44 47.12717 82.30182 39231 ft 484 kts 125°
2026-04-28 13:44 47.09011 82.38550 39258 ft 484 kts 125°
2026-04-28 13:45 47.05299 82.46905 39263 ft 484 kts 125°
2026-04-28 13:45 47.01600 82.55207 39265 ft 484 kts 125°
2026-04-28 13:46 46.97878 82.63535 39265 ft 484 kts 125°
2026-04-28 13:46 46.94134 82.71907 39264 ft 484 kts 126°
2026-04-28 13:47 46.90392 82.80246 39264 ft 484 kts 126°
2026-04-28 13:47 46.86674 82.88441 39264 ft 484 kts 126°
2026-04-28 13:48 46.82991 82.96902 39264 ft 485 kts 124°
2026-04-28 13:48 46.79401 83.05337 39264 ft 485 kts 124°
2026-04-28 13:49 46.75847 83.13627 39264 ft 485 kts 125°
2026-04-28 13:49 46.72217 83.22052 39264 ft 485 kts 125°
2026-04-28 13:50 46.68572 83.30481 39263 ft 485 kts 125°
2026-04-28 13:50 46.64839 83.38792 39263 ft 484 kts 128°
2026-04-28 13:51 46.60847 83.46775 39264 ft 483 kts 129°
2026-04-28 13:51 46.56837 83.54742 39264 ft 483 kts 129°
2026-04-28 13:52 46.52847 83.62660 39264 ft 483 kts 129°
2026-04-28 13:52 46.48848 83.70594 39263 ft 483 kts 130°
2026-04-28 13:53 46.44873 83.78469 39264 ft 483 kts 130°
2026-04-28 13:53 46.40848 83.86403 39264 ft 483 kts 130°
2026-04-28 13:54 46.36826 83.94306 39264 ft 483 kts 130°
2026-04-28 13:54 46.32803 84.02182 39264 ft 483 kts 130°
2026-04-28 13:55 46.28748 84.10094 39264 ft 483 kts 130°
2026-04-28 13:55 46.24727 84.17913 39264 ft 483 kts 130°
2026-04-28 13:56 46.20669 84.25744 39264 ft 483 kts 130°
2026-04-28 13:56 46.16596 84.33578 39264 ft 484 kts 130°
2026-04-28 13:57 46.12504 84.41429 39265 ft 484 kts 130°
2026-04-28 13:57 46.08440 84.49205 39265 ft 484 kts 130°
2026-04-28 13:58 46.04409 84.56900 39265 ft 484 kts 130°
2026-04-28 13:58 46.00310 84.64700 39265 ft 484 kts 130°
2026-04-28 13:59 45.96211 84.72510 39263 ft 483 kts 131°
2026-04-28 13:59 45.92121 84.80271 39264 ft 483 kts 131°
2026-04-28 14:00 45.88010 84.88017 39264 ft 483 kts 132°
2026-04-28 14:00 45.83885 84.95729 39264 ft 484 kts 132°
2026-04-28 14:01 45.79748 85.03479 39265 ft 484 kts 132°
2026-04-28 14:01 45.75634 85.11180 39269 ft 484 kts 132°
2026-04-28 14:02 45.71486 85.18925 39276 ft 484 kts 132°
2026-04-28 14:02 45.67336 85.26671 39283 ft 485 kts 132°
2026-04-28 14:03 45.63198 85.34417 39287 ft 485 kts 132°
2026-04-28 14:03 45.59080 85.42107 39289 ft 485 kts 132°
2026-04-28 14:04 45.54952 85.49796 39290 ft 485 kts 132°
2026-04-28 14:04 45.50766 85.57570 39290 ft 485 kts 132°
2026-04-28 14:05 45.46585 85.65313 39290 ft 485 kts 133°
2026-04-28 14:05 45.42425 85.73027 39290 ft 484 kts 133°
2026-04-28 14:06 45.38262 85.80718 39290 ft 484 kts 133°
2026-04-28 14:06 45.34117 85.88337 39290 ft 484 kts 133°
2026-04-28 14:07 45.29950 85.95972 39290 ft 484 kts 133°
2026-04-28 14:07 45.25774 86.03606 39290 ft 485 kts 133°
2026-04-28 14:08 45.21539 86.11324 39290 ft 486 kts 133°
2026-04-28 14:08 45.18025 86.17708 39291 ft 486 kts 133°
2026-04-28 14:09 45.13114 86.26610 39291 ft 486 kts 133°
2026-04-28 14:09 45.08864 86.34292 39291 ft 486 kts 133°
2026-04-28 14:10 45.04626 86.41931 39291 ft 486 kts 133°
2026-04-28 14:10 45.00394 86.49539 39291 ft 485 kts 133°
2026-04-28 14:11 44.96154 86.57142 39291 ft 486 kts 133°
2026-04-28 14:11 44.91918 86.64715 39291 ft 486 kts 133°
2026-04-28 14:12 44.87689 86.72262 39291 ft 485 kts 134°
2026-04-28 14:12 44.83456 86.79767 39291 ft 485 kts 134°
2026-04-28 14:13 44.79159 86.87265 39291 ft 485 kts 135°
2026-04-28 14:13 44.74860 86.94696 39291 ft 485 kts 135°
2026-04-28 14:14 44.70546 87.02158 39291 ft 485 kts 135°
2026-04-28 14:14 44.66242 87.09617 39290 ft 485 kts 135°
2026-04-28 14:15 44.61926 87.17083 39290 ft 485 kts 135°
2026-04-28 14:15 44.57632 87.24483 39290 ft 485 kts 135°
2026-04-28 14:16 44.53375 87.31910 39291 ft 487 kts 133°
2026-04-28 14:16 44.49212 87.39588 39290 ft 487 kts 133°
2026-04-28 14:17 44.45055 87.47248 39290 ft 487 kts 133°
2026-04-28 14:17 44.40886 87.54869 39291 ft 487 kts 133°
2026-04-28 14:18 44.38312 87.59559 39291 ft 487 kts 133°
2026-04-28 14:18 44.34670 87.66178 39289 ft 486 kts 134°
2026-04-28 14:19 44.30500 87.73838 39284 ft 488 kts 130°
2026-04-28 14:19 44.26360 87.81563 39248 ft 492 kts 129°
2026-04-28 14:20 44.22218 87.89311 39226 ft 493 kts 129°
2026-04-28 14:20 44.18110 87.96988 39215 ft 494 kts 127°
2026-04-28 14:21 44.14418 88.05102 39212 ft 495 kts 122°
2026-04-28 14:21 44.10886 88.13413 39210 ft 495 kts 122°
2026-04-28 14:22 44.07342 88.21717 39210 ft 495 kts 122°
2026-04-28 14:22 44.03797 88.29970 39210 ft 495 kts 122°
2026-04-28 14:23 44.00281 88.38125 39210 ft 495 kts 122°
2026-04-28 14:23 43.96706 88.46386 39210 ft 495 kts 122°
2026-04-28 14:24 43.93214 88.54434 39210 ft 495 kts 122°
2026-04-28 14:24 43.89652 88.62622 39210 ft 495 kts 122°
2026-04-28 14:25 43.86046 88.70840 39209 ft 495 kts 123°
2026-04-28 14:25 43.82410 88.79134 39210 ft 495 kts 123°
2026-04-28 14:26 43.78744 88.87487 39210 ft 495 kts 123°
2026-04-28 14:26 43.75080 88.95814 39212 ft 496 kts 123°
2026-04-28 14:27 43.71424 89.04102 39215 ft 496 kts 123°
2026-04-28 14:27 43.67771 89.12356 39214 ft 496 kts 122°
2026-04-28 14:28 43.64096 89.20635 39212 ft 497 kts 122°
2026-04-28 14:28 43.60399 89.28944 39210 ft 497 kts 122°
2026-04-28 14:29 43.56702 89.37224 39210 ft 497 kts 122°
2026-04-28 14:29 43.53065 89.45473 39210 ft 497 kts 122°
2026-04-28 14:30 43.49464 89.53764 39210 ft 497 kts 122°
2026-04-28 14:30 43.45831 89.62094 39210 ft 497 kts 122°
2026-04-28 14:31 43.42226 89.70339 39209 ft 497 kts 122°
2026-04-28 14:31 43.38607 89.78597 39209 ft 497 kts 122°
2026-04-28 14:32 43.35103 89.86552 39211 ft 497 kts 122°